Time,TemperatureF,DewpointF,PressureIn,WindDirection,WindDirectionDegrees,WindSpeedMPH,WindSpeedGustMPH,Humidity,HourlyPrecipIn,Conditions,Clouds,dailyrainin,SoftwareType,DateUTC
2013-03-24 00:03:00,55.4,15.0,29.94,NNW,338,0.0,0.0,20,0.00,,---,0.00,VWS V14.01,2013-03-24 07:03:00,
2013-03-24 00:08:00,55.2,14.9,29.94,NW,315,0.0,0.0,20,0.00,,---,0.00,VWS V14.01,2013-03-24 07:08:00,
2013-03-24 00:13:00,55.0,14.7,29.94,NNW,338,0.0,0.0,20,0.00,,---,0.00,VWS V14.01,2013-03-24 07:13:00,
2013-03-24 00:18:00,54.7,14.4,29.94,NW,315,0.0,0.0,20,0.00,,---,0.00,VWS V14.01,2013-03-24 07:18:00,
2013-03-24 00:24:00,54.5,14.3,29.94,NNW,338,0.0,0.0,20,0.00,,---,0.00,VWS V14.01,2013-03-24 07:24:00,
2013-03-24 00:29:00,54.1,14.0,29.94,NNW,338,0.0,0.0,20,0.00,,---,0.00,VWS V14.01,2013-03-24 07:29:00,
2013-03-24 00:34:00,54.0,13.8,29.97,NW,315,0.0,0.0,20,0.00,,---,0.00,VWS V14.01,2013-03-24 07:34:00,
2013-03-24 00:39:00,53.6,13.5,29.97,NNW,338,0.0,0.0,20,0.00,,---,0.00,VWS V14.01,2013-03-24 07:39:00,
2013-03-24 00:44:00,53.2,14.3,29.97,NNW,338,0.0,0.0,21,0.00,,---,0.00,VWS V14.01,2013-03-24 07:44:00,
2013-03-24 00:49:00,52.7,13.9,29.94,NNW,338,0.0,0.0,21,0.00,,---,0.00,VWS V14.01,2013-03-24 07:49:00,
2013-03-24 00:54:00,52.3,13.6,29.94,NNW,338,0.0,0.0,21,0.00,,---,0.00,VWS V14.01,2013-03-24 07:54:00,
2013-03-24 00:59:00,52.0,13.3,29.94,NNW,338,0.0,0.0,21,0.00,,---,0.00,VWS V14.01,2013-03-24 07:59:00,
2013-03-24 01:04:00,51.4,12.8,29.94,NNW,338,0.0,0.0,21,0.00,,---,0.00,VWS V14.01,2013-03-24 08:04:00,
2013-03-24 01:09:00,51.1,12.5,29.97,NNW,338,0.0,0.0,21,0.00,,---,0.00,VWS V14.01,2013-03-24 08:09:00,
2013-03-24 01:14:00,50.7,12.2,29.97,NNW,338,0.0,0.0,21,0.00,,---,0.00,VWS V14.01,2013-03-24 08:14:00,
2013-03-24 01:19:00,50.9,12.4,29.97,NNW,338,0.0,0.0,21,0.00,,---,0.00,VWS V14.01,2013-03-24 08:19:00,
2013-03-24 01:24:00,50.7,12.2,29.97,North,0,0.0,0.0,21,0.00,,---,0.00,VWS V14.01,2013-03-24 08:24:00,
2013-03-24 01:29:00,50.5,12.1,29.97,NNW,338,0.0,0.0,21,0.00,,---,0.00,VWS V14.01,2013-03-24 08:29:00,
2013-03-24 01:35:00,50.5,12.1,29.97,NNW,338,0.0,0.0,21,0.00,,---,0.00,VWS V14.01,2013-03-24 08:35:00,
2013-03-24 01:40:00,50.5,12.1,29.97,NNW,338,0.0,0.0,21,0.00,,---,0.00,VWS V14.01,2013-03-24 08:40:00,
2013-03-24 01:45:00,50.4,11.9,29.97,NNW,338,0.0,0.0,21,0.00,,---,0.00,VWS V14.01,2013-03-24 08:45:00,
2013-03-24 01:50:00,50.4,14.9,29.97,NNW,338,0.0,0.0,24,0.00,,---,0.00,VWS V14.01,2013-03-24 08:50:00,
2013-03-24 01:55:00,50.5,15.1,29.97,North,0,0.0,0.0,24,0.00,,---,0.00,VWS V14.01,2013-03-24 08:55:00,
2013-03-24 02:00:00,50.7,15.3,29.97,NNW,338,0.0,0.0,24,0.00,,---,0.00,VWS V14.01,2013-03-24 09:00:00,
2013-03-24 02:05:00,50.9,12.4,29.97,NW,315,0.0,0.0,21,0.00,,---,0.00,VWS V14.01,2013-03-24 09:05:00,
2013-03-24 02:10:00,51.1,12.5,29.97,NW,315,0.0,0.0,21,0.00,,---,0.00,VWS V14.01,2013-03-24 09:10:00,
2013-03-24 02:15:00,50.9,12.4,29.97,NNW,338,0.0,0.0,21,0.00,,---,0.00,VWS V14.01,2013-03-24 09:15:00,
2013-03-24 02:20:00,51.1,12.5,29.97,NW,315,0.0,0.0,21,0.00,,---,0.00,VWS V14.01,2013-03-24 09:20:00,
2013-03-24 02:25:00,51.3,12.7,29.97,NNW,338,0.0,0.0,21,0.00,,---,0.00,VWS V14.01,2013-03-24 09:25:00,
2013-03-24 02:30:00,51.4,12.8,29.97,NW,315,0.0,0.0,21,0.00,,---,0.00,VWS V14.01,2013-03-24 09:30:00,
2013-03-24 02:35:00,51.4,12.8,29.94,NNW,338,0.0,0.0,21,0.00,,---,0.00,VWS V14.01,2013-03-24 09:35:00,
2013-03-24 02:40:00,51.6,13.0,29.94,North,0,0.0,0.0,21,0.00,,---,0.00,VWS V14.01,2013-03-24 09:40:00,
2013-03-24 02:46:00,51.8,13.1,29.94,North,0,0.0,0.0,21,0.00,,---,0.00,VWS V14.01,2013-03-24 09:46:00,
2013-03-24 02:51:00,51.6,13.0,29.94,NNW,338,0.0,0.0,21,0.00,,---,0.00,VWS V14.01,2013-03-24 09:51:00,
2013-03-24 02:56:00,51.6,13.0,29.94,NNW,338,0.0,0.0,21,0.00,,---,0.00,VWS V14.01,2013-03-24 09:56:00,
2013-03-24 03:01:00,51.8,13.1,29.94,North,0,0.0,0.0,21,0.00,,---,0.00,VWS V14.01,2013-03-24 10:01:00,
2013-03-24 03:06:00,52.2,13.4,29.94,NNW,338,0.0,0.0,21,0.00,,---,0.00,VWS V14.01,2013-03-24 10:06:00,
2013-03-24 03:11:00,52.3,13.6,29.94,NNW,338,0.0,0.0,21,0.00,,---,0.00,VWS V14.01,2013-03-24 10:11:00,
2013-03-24 03:16:00,52.3,13.6,29.94,NNW,338,0.0,0.0,21,0.00,,---,0.00,VWS V14.01,2013-03-24 10:16:00,
2013-03-24 03:21:00,52.7,13.9,29.94,NW,315,0.0,0.0,21,0.00,,---,0.00,VWS V14.01,2013-03-24 10:21:00,
2013-03-24 03:26:00,52.5,13.7,29.94,NW,315,0.0,0.0,21,0.00,,---,0.00,VWS V14.01,2013-03-24 10:26:00,
2013-03-24 03:32:00,52.5,13.7,29.94,NW,315,0.0,0.0,21,0.00,,---,0.00,VWS V14.01,2013-03-24 10:32:00,
2013-03-24 03:37:00,52.5,13.7,29.94,North,0,0.0,0.0,21,0.00,,---,0.00,VWS V14.01,2013-03-24 10:37:00,
2013-03-24 03:42:00,52.0,13.3,29.94,NW,315,0.0,0.0,21,0.00,,---,0.00,VWS V14.01,2013-03-24 10:42:00,
2013-03-24 03:47:00,51.6,13.0,29.94,NW,315,0.0,0.0,21,0.00,,---,0.00,VWS V14.01,2013-03-24 10:47:00,
2013-03-24 03:52:00,51.3,12.7,29.94,NW,315,0.0,0.0,21,0.00,,---,0.00,VWS V14.01,2013-03-24 10:52:00,
2013-03-24 03:57:00,50.9,12.4,29.94,South,180,0.0,0.0,21,0.00,,---,0.00,VWS V14.01,2013-03-24 10:57:00,
2013-03-24 04:02:00,50.2,11.8,29.94,South,180,0.0,0.0,21,0.00,,---,0.00,VWS V14.01,2013-03-24 11:02:00,
2013-03-24 04:07:00,49.3,11.0,29.94,SSE,158,0.0,0.0,21,0.00,,---,0.00,VWS V14.01,2013-03-24 11:07:00,
2013-03-24 04:12:00,48.4,10.3,29.94,SSE,158,0.0,0.0,21,0.00,,---,0.00,VWS V14.01,2013-03-24 11:12:00,
2013-03-24 04:17:00,47.3,10.4,29.94,SSE,158,0.0,0.0,22,0.00,,---,0.00,VWS V14.01,2013-03-24 11:17:00,
2013-03-24 04:22:00,46.9,10.1,29.94,SSE,158,0.0,0.0,22,0.00,,---,0.00,VWS V14.01,2013-03-24 11:22:00,
2013-03-24 04:27:00,46.6,9.8,29.94,North,0,0.0,0.0,22,0.00,,---,0.00,VWS V14.01,2013-03-24 11:27:00,
2013-03-24 04:32:00,46.4,9.6,29.94,North,0,0.0,0.0,22,0.00,,---,0.00,VWS V14.01,2013-03-24 11:32:00,
2013-03-24 04:38:00,46.2,12.4,29.94,North,0,0.0,0.0,25,0.00,,---,0.00,VWS V14.01,2013-03-24 11:38:00,
2013-03-24 04:43:00,46.0,12.2,29.94,NNW,338,0.0,0.0,25,0.00,,---,0.00,VWS V14.01,2013-03-24 11:43:00,
2013-03-24 04:48:00,45.9,12.0,29.94,NNW,338,0.0,0.0,25,0.00,,---,0.00,VWS V14.01,2013-03-24 11:48:00,
2013-03-24 04:53:00,45.7,11.9,29.94,NNW,338,0.0,0.0,25,0.00,,---,0.00,VWS V14.01,2013-03-24 11:53:00,
2013-03-24 04:58:00,45.7,11.9,29.94,NW,315,0.0,0.0,25,0.00,,---,0.00,VWS V14.01,2013-03-24 11:58:00,
2013-03-24 05:03:00,45.5,11.7,29.97,North,0,0.0,0.0,25,0.00,,---,0.00,VWS V14.01,2013-03-24 12:03:00,
2013-03-24 05:08:00,45.5,11.7,29.97,NNW,338,0.0,0.0,25,0.00,,---,0.00,VWS V14.01,2013-03-24 12:08:00,
2013-03-24 05:13:00,45.5,11.7,29.97,NNW,338,0.0,0.0,25,0.00,,---,0.00,VWS V14.01,2013-03-24 12:13:00,
2013-03-24 05:18:00,45.7,11.9,29.97,ENE,68,0.0,0.0,25,0.00,,---,0.00,VWS V14.01,2013-03-24 12:18:00,
2013-03-24 05:23:00,45.5,11.7,29.97,South,180,0.0,0.0,25,0.00,,---,0.00,VWS V14.01,2013-03-24 12:23:00,
2013-03-24 05:28:00,45.3,11.6,29.97,East,90,0.0,0.0,25,0.00,,---,0.00,VWS V14.01,2013-03-24 12:28:00,
2013-03-24 05:33:00,44.8,11.1,29.97,NNW,338,0.0,0.0,25,0.00,,---,0.00,VWS V14.01,2013-03-24 12:33:00,
2013-03-24 05:38:00,44.8,11.1,29.97,NNE,22,0.0,0.0,25,0.00,,---,0.00,VWS V14.01,2013-03-24 12:38:00,
2013-03-24 05:44:00,44.6,11.0,29.97,ENE,68,0.0,0.0,25,0.00,,---,0.00,VWS V14.01,2013-03-24 12:44:00,
2013-03-24 05:49:00,44.1,10.5,29.97,NE,45,0.0,0.0,25,0.00,,---,0.00,VWS V14.01,2013-03-24 12:49:00,
2013-03-24 05:54:00,43.7,10.2,29.97,NNW,338,0.0,0.0,25,0.00,,---,0.00,VWS V14.01,2013-03-24 12:54:00,
2013-03-24 05:59:00,44.1,10.5,29.97,NW,315,0.0,0.0,25,0.00,,---,0.00,VWS V14.01,2013-03-24 12:59:00,
2013-03-24 06:04:00,44.2,10.7,29.97,NNW,338,0.0,0.0,25,0.00,,---,0.00,VWS V14.01,2013-03-24 13:04:00,
2013-03-24 06:09:00,45.1,11.4,29.97,NW,315,0.0,0.0,25,0.00,,---,0.00,VWS V14.01,2013-03-24 13:09:00,
2013-03-24 06:14:00,45.5,11.7,29.97,NNW,338,0.0,0.0,25,0.00,,---,0.00,VWS V14.01,2013-03-24 13:14:00,
2013-03-24 06:19:00,46.0,12.2,29.97,NW,315,0.0,0.0,25,0.00,,---,0.00,VWS V14.01,2013-03-24 13:19:00,
2013-03-24 06:24:00,46.0,12.2,29.97,NNW,338,0.0,0.0,25,0.00,,---,0.00,VWS V14.01,2013-03-24 13:24:00,
2013-03-24 06:29:00,46.2,12.4,29.97,NNW,338,0.0,0.0,25,0.00,,---,0.00,VWS V14.01,2013-03-24 13:29:00,
2013-03-24 06:34:00,46.4,11.6,29.97,NW,315,0.0,0.0,24,0.00,,---,0.00,VWS V14.01,2013-03-24 13:34:00,
2013-03-24 06:39:00,46.4,11.6,29.97,NW,315,0.0,0.0,24,0.00,,---,0.00,VWS V14.01,2013-03-24 13:39:00,
2013-03-24 06:44:00,46.2,12.4,29.97,NW,315,0.0,0.0,25,0.00,,---,0.00,VWS V14.01,2013-03-24 13:44:00,
2013-03-24 06:49:00,45.9,13.8,29.97,NW,315,0.0,0.0,27,0.00,,---,0.00,VWS V14.01,2013-03-24 13:49:00,
2013-03-24 06:54:00,46.0,13.9,29.97,NW,315,0.0,0.0,27,0.00,,---,0.00,VWS V14.01,2013-03-24 13:54:00,
2013-03-24 06:59:00,46.2,14.1,29.97,NW,315,0.0,0.0,27,0.00,,---,0.00,VWS V14.01,2013-03-24 13:59:00,
2013-03-24 07:04:00,46.6,14.4,29.97,NW,315,0.0,0.0,27,0.00,,---,0.00,VWS V14.01,2013-03-24 14:04:00,
2013-03-24 07:09:00,47.1,14.9,29.97,NW,315,0.0,0.0,27,0.00,,---,0.00,VWS V14.01,2013-03-24 14:09:00,
2013-03-24 07:14:00,47.7,15.3,29.97,NW,315,0.0,0.0,27,0.00,,---,0.00,VWS V14.01,2013-03-24 14:14:00,
2013-03-24 07:19:00,48.4,15.1,29.97,NNW,338,0.0,0.0,26,0.00,,---,0.00,VWS V14.01,2013-03-24 14:19:00,
2013-03-24 07:24:00,49.1,15.7,29.97,NNE,22,0.0,0.0,26,0.00,,---,0.00,VWS V14.01,2013-03-24 14:24:00,
2013-03-24 07:29:00,49.8,17.2,29.97,East,90,0.0,0.0,27,0.00,,---,0.00,VWS V14.01,2013-03-24 14:29:00,
2013-03-24 07:34:00,50.2,16.6,29.97,SE,135,0.0,0.0,26,0.00,,---,0.00,VWS V14.01,2013-03-24 14:34:00,
2013-03-24 07:39:00,51.3,17.6,29.97,SE,135,0.0,0.0,26,0.00,,---,0.00,VWS V14.01,2013-03-24 14:39:00,
2013-03-24 07:45:00,52.5,18.6,29.97,SE,135,0.0,0.0,26,0.00,,---,0.00,VWS V14.01,2013-03-24 14:45:00,
2013-03-24 07:50:00,53.2,19.3,29.97,ESE,112,0.0,0.0,26,0.00,,---,0.00,VWS V14.01,2013-03-24 14:50:00,
2013-03-24 07:55:00,55.0,20.8,29.97,SE,135,0.0,0.0,26,0.00,,---,0.00,VWS V14.01,2013-03-24 14:55:00,
2013-03-24 08:00:00,58.3,22.6,29.97,SE,135,0.0,0.0,25,0.00,,---,0.00,VWS V14.01,2013-03-24 15:00:00,
2013-03-24 08:05:00,58.1,22.5,29.97,SE,135,0.0,0.0,25,0.00,,---,0.00,VWS V14.01,2013-03-24 15:05:00,
2013-03-24 08:10:00,60.6,24.6,29.97,SSE,158,0.0,0.0,25,0.00,,---,0.00,VWS V14.01,2013-03-24 15:10:00,
2013-03-24 08:15:00,62.1,24.9,29.97,SSW,202,0.0,0.0,24,0.00,,---,0.00,VWS V14.01,2013-03-24 15:15:00,
2013-03-24 08:20:00,64.8,26.1,29.97,South,180,0.0,0.0,23,0.00,,---,0.00,VWS V14.01,2013-03-24 15:20:00,
2013-03-24 08:25:00,66.0,27.2,29.97,SSE,158,0.0,0.0,23,0.00,,---,0.00,VWS V14.01,2013-03-24 15:25:00,
2013-03-24 08:30:00,66.0,27.2,29.97,SSE,158,0.0,0.0,23,0.00,,---,0.00,VWS V14.01,2013-03-24 15:30:00,
2013-03-24 08:35:00,65.7,26.9,29.97,South,180,0.0,0.0,23,0.00,,---,0.00,VWS V14.01,2013-03-24 15:35:00,
2013-03-24 08:40:00,64.9,26.3,29.97,SSW,202,0.0,0.0,23,0.00,,---,0.00,VWS V14.01,2013-03-24 15:40:00,
2013-03-24 08:46:00,64.6,26.0,29.97,ENE,68,0.0,0.0,23,0.00,,---,0.00,VWS V14.01,2013-03-24 15:46:00,
2013-03-24 08:51:00,64.8,26.1,29.97,SE,135,0.0,0.0,23,0.00,,---,0.00,VWS V14.01,2013-03-24 15:51:00,
2013-03-24 08:56:00,64.8,26.1,29.97,SSE,158,0.0,0.0,23,0.00,,---,0.00,VWS V14.01,2013-03-24 15:56:00,
2013-03-24 09:01:00,65.1,26.4,29.97,ESE,112,0.0,0.0,23,0.00,,---,0.00,VWS V14.01,2013-03-24 16:01:00,
2013-03-24 09:06:00,65.5,26.7,29.97,SW,225,0.0,0.0,23,0.00,,---,0.00,VWS V14.01,2013-03-24 16:06:00,
2013-03-24 09:11:00,66.0,27.2,29.97,SSE,158,0.0,0.0,23,0.00,,---,0.00,VWS V14.01,2013-03-24 16:11:00,
2013-03-24 09:17:00,66.6,26.6,29.97,SE,135,0.0,0.0,22,0.00,,---,0.00,VWS V14.01,2013-03-24 16:17:00,
2013-03-24 09:22:00,66.9,26.9,29.97,SSW,202,0.0,0.0,22,0.00,,---,0.00,VWS V14.01,2013-03-24 16:22:00,
2013-03-24 09:27:00,67.3,27.2,29.97,SSE,158,0.0,0.0,22,0.00,,---,0.00,VWS V14.01,2013-03-24 16:27:00,
2013-03-24 09:32:00,67.8,27.6,29.97,SSW,202,0.0,0.0,22,0.00,,---,0.00,VWS V14.01,2013-03-24 16:32:00,
2013-03-24 09:37:00,68.4,28.1,29.97,SSE,158,0.0,0.0,22,0.00,,---,0.00,VWS V14.01,2013-03-24 16:37:00,
2013-03-24 09:42:00,68.9,28.5,29.97,NE,45,1.1,3.6,22,0.00,,---,0.00,VWS V14.01,2013-03-24 16:42:00,
2013-03-24 09:47:00,69.3,28.8,29.97,West,270,0.0,0.0,22,0.00,,---,0.00,VWS V14.01,2013-03-24 16:47:00,
2013-03-24 09:52:00,69.8,29.3,29.97,South,180,0.0,0.0,22,0.00,,---,0.00,VWS V14.01,2013-03-24 16:52:00,
2013-03-24 09:57:00,69.8,25.7,29.97,WSW,248,1.1,1.1,19,0.00,,---,0.00,VWS V14.01,2013-03-24 16:57:00,
2013-03-24 10:02:00,70.2,26.0,29.97,South,180,0.0,0.0,19,0.00,,---,0.00,VWS V14.01,2013-03-24 17:02:00,
2013-03-24 10:07:00,70.7,26.5,29.97,South,180,0.0,0.0,19,0.00,,---,0.00,VWS V14.01,2013-03-24 17:07:00,
2013-03-24 10:12:00,71.2,26.9,29.97,SSE,158,0.0,0.0,19,0.00,,---,0.00,VWS V14.01,2013-03-24 17:12:00,
2013-03-24 10:17:00,71.6,27.2,29.97,South,180,2.5,2.5,19,0.00,,---,0.00,VWS V14.01,2013-03-24 17:17:00,
2013-03-24 10:22:00,71.6,27.2,29.97,SW,225,0.0,0.0,19,0.00,,---,0.00,VWS V14.01,2013-03-24 17:22:00,
2013-03-24 10:27:00,72.0,27.5,29.97,SSW,202,0.9,0.9,19,0.00,,---,0.00,VWS V14.01,2013-03-24 17:27:00,
2013-03-24 10:32:00,72.1,27.6,29.97,SW,225,2.7,2.7,19,0.00,,---,0.00,VWS V14.01,2013-03-24 17:32:00,
2013-03-24 10:37:00,72.5,27.9,29.97,South,180,0.0,0.0,19,0.00,,---,0.00,VWS V14.01,2013-03-24 17:37:00,
2013-03-24 10:42:00,72.7,28.1,29.97,SSW,202,0.0,0.0,19,0.00,,---,0.00,VWS V14.01,2013-03-24 17:42:00,
2013-03-24 10:47:00,72.7,28.1,29.94,South,180,0.0,2.7,19,0.00,,---,0.00,VWS V14.01,2013-03-24 17:47:00,
2013-03-24 10:52:00,73.4,27.4,29.94,ENE,68,2.2,2.9,18,0.00,,---,0.00,VWS V14.01,2013-03-24 17:52:00,
2013-03-24 10:57:00,73.8,27.6,29.94,South,180,0.0,0.0,18,0.00,,---,0.00,VWS V14.01,2013-03-24 17:57:00,
2013-03-24 11:03:00,74.1,27.9,29.94,ESE,112,0.0,0.0,18,0.00,,---,0.00,VWS V14.01,2013-03-24 18:03:00,
2013-03-24 11:08:00,74.1,27.9,29.94,SSW,202,0.0,0.0,18,0.00,,---,0.00,VWS V14.01,2013-03-24 18:08:00,
2013-03-24 11:13:00,74.3,28.1,29.94,WSW,248,0.0,0.0,18,0.00,,---,0.00,VWS V14.01,2013-03-24 18:13:00,
2013-03-24 11:18:00,74.1,27.9,29.94,WSW,248,0.0,0.0,18,0.00,,---,0.00,VWS V14.01,2013-03-24 18:18:00,
2013-03-24 11:23:00,74.5,28.2,29.94,ENE,68,0.0,0.0,18,0.00,,---,0.00,VWS V14.01,2013-03-24 18:23:00,
2013-03-24 11:28:00,74.7,28.4,29.94,SSE,158,0.0,0.0,18,0.00,,---,0.00,VWS V14.01,2013-03-24 18:28:00,
2013-03-24 11:33:00,75.0,25.8,29.94,SW,225,0.0,0.0,16,0.00,,---,0.00,VWS V14.01,2013-03-24 18:33:00,
2013-03-24 11:38:00,74.8,25.7,29.94,SW,225,0.0,0.0,16,0.00,,---,0.00,VWS V14.01,2013-03-24 18:38:00,
2013-03-24 11:43:00,74.8,25.7,29.94,West,270,0.0,0.0,16,0.00,,---,0.00,VWS V14.01,2013-03-24 18:43:00,
2013-03-24 11:48:00,74.7,25.5,29.94,East,90,0.0,0.0,16,0.00,,---,0.00,VWS V14.01,2013-03-24 18:48:00,
2013-03-24 11:53:00,74.8,25.7,29.94,WSW,248,0.0,0.0,16,0.00,,---,0.00,VWS V14.01,2013-03-24 18:53:00,
2013-03-24 11:58:00,75.4,24.6,29.94,South,180,0.0,0.0,15,0.00,,---,0.00,VWS V14.01,2013-03-24 18:58:00,
2013-03-24 12:03:00,75.6,24.7,29.91,SW,225,0.0,0.0,15,0.00,,---,0.00,VWS V14.01,2013-03-24 19:03:00,
2013-03-24 12:08:00,76.1,25.1,29.91,SE,135,0.0,0.0,15,0.00,,---,0.00,VWS V14.01,2013-03-24 19:08:00,
2013-03-24 12:13:00,76.6,25.6,29.91,SW,225,0.0,0.0,15,0.00,,---,0.00,VWS V14.01,2013-03-24 19:13:00,
2013-03-24 12:18:00,76.3,25.3,29.91,ESE,112,0.0,0.0,15,0.00,,---,0.00,VWS V14.01,2013-03-24 19:18:00,
2013-03-24 12:23:00,74.7,25.5,29.91,ENE,68,0.0,0.0,16,0.00,,---,0.00,VWS V14.01,2013-03-24 19:23:00,
2013-03-24 12:29:00,74.8,25.7,29.91,SSE,158,0.0,0.0,16,0.00,,---,0.00,VWS V14.01,2013-03-24 19:29:00,
2013-03-24 12:34:00,75.4,24.6,29.91,SW,225,0.0,0.0,15,0.00,,---,0.00,VWS V14.01,2013-03-24 19:34:00,
2013-03-24 12:39:00,75.9,25.0,29.91,WSW,248,0.0,0.0,15,0.00,,---,0.00,VWS V14.01,2013-03-24 19:39:00,
2013-03-24 12:44:00,75.7,24.9,29.91,SW,225,0.0,0.0,15,0.00,,---,0.00,VWS V14.01,2013-03-24 19:44:00,
2013-03-24 12:49:00,75.9,25.0,29.91,WSW,248,2.0,2.0,15,0.00,,---,0.00,VWS V14.01,2013-03-24 19:49:00,
2013-03-24 12:54:00,75.9,25.0,29.91,ENE,68,3.8,3.8,15,0.00,,---,0.00,VWS V14.01,2013-03-24 19:54:00,
2013-03-24 12:59:00,76.1,25.1,29.91,WSW,248,0.0,0.0,15,0.00,,---,0.00,VWS V14.01,2013-03-24 19:59:00,
2013-03-24 13:04:00,76.3,25.3,29.91,NE,45,0.0,0.0,15,0.00,,---,0.00,VWS V14.01,2013-03-24 20:04:00,
2013-03-24 13:09:00,75.7,24.9,29.91,NW,315,0.0,0.0,15,0.00,,---,0.00,VWS V14.01,2013-03-24 20:09:00,
2013-03-24 13:14:00,76.1,25.1,29.91,North,0,0.0,0.0,15,0.00,,---,0.00,VWS V14.01,2013-03-24 20:14:00,
2013-03-24 13:19:00,76.3,25.3,29.91,WSW,248,3.8,3.8,15,0.00,,---,0.00,VWS V14.01,2013-03-24 20:19:00,
2013-03-24 13:24:00,75.9,25.0,29.91,SW,225,2.7,3.8,15,0.00,,---,0.00,VWS V14.01,2013-03-24 20:24:00,
2013-03-24 13:29:00,75.0,25.8,29.91,NNW,338,0.0,0.0,16,0.00,,---,0.00,VWS V14.01,2013-03-24 20:29:00,
2013-03-24 13:34:00,75.2,24.4,29.88,SSW,202,0.0,0.0,15,0.00,,---,0.00,VWS V14.01,2013-03-24 20:34:00,
2013-03-24 13:39:00,75.7,24.9,29.88,SSE,158,0.0,0.0,15,0.00,,---,0.00,VWS V14.01,2013-03-24 20:39:00,
2013-03-24 13:44:00,75.7,24.9,29.88,WSW,248,4.0,4.0,15,0.00,,---,0.00,VWS V14.01,2013-03-24 20:44:00,
2013-03-24 13:49:00,75.6,24.7,29.88,SW,225,0.0,0.0,15,0.00,,---,0.00,VWS V14.01,2013-03-24 20:49:00,
2013-03-24 13:54:00,75.7,24.9,29.88,SSW,202,5.6,5.6,15,0.00,,---,0.00,VWS V14.01,2013-03-24 20:54:00,
2013-03-24 14:00:00,75.7,24.9,29.88,NNW,338,0.0,0.0,15,0.00,,---,0.00,VWS V14.01,2013-03-24 21:00:00,
2013-03-24 14:05:00,75.9,25.0,29.88,NNW,338,4.3,4.3,15,0.00,,---,0.00,VWS V14.01,2013-03-24 21:05:00,
2013-03-24 14:10:00,75.7,24.9,29.88,North,0,0.0,0.9,15,0.00,,---,0.00,VWS V14.01,2013-03-24 21:10:00,
2013-03-24 14:15:00,75.7,24.9,29.88,SSE,158,0.0,0.0,15,0.00,,---,0.00,VWS V14.01,2013-03-24 21:15:00,
2013-03-24 14:20:00,76.3,25.3,29.88,WSW,248,1.1,1.1,15,0.00,,---,0.00,VWS V14.01,2013-03-24 21:20:00,
2013-03-24 14:25:00,76.8,25.7,29.88,NNW,338,0.0,0.0,15,0.00,,---,0.00,VWS V14.01,2013-03-24 21:25:00,
2013-03-24 14:30:00,76.1,25.1,29.88,NNW,338,0.0,0.0,15,0.00,,---,0.00,VWS V14.01,2013-03-24 21:30:00,
2013-03-24 14:35:00,75.9,25.0,29.85,SSW,202,0.0,1.1,15,0.00,,---,0.00,VWS V14.01,2013-03-24 21:35:00,
2013-03-24 14:40:00,76.3,25.3,29.85,West,270,2.0,2.0,15,0.00,,---,0.00,VWS V14.01,2013-03-24 21:40:00,
2013-03-24 14:45:00,76.6,25.6,29.85,SSW,202,0.0,0.0,15,0.00,,---,0.00,VWS V14.01,2013-03-24 21:45:00,
2013-03-24 14:50:00,76.3,25.3,29.85,NW,315,0.9,1.1,15,0.00,,---,0.00,VWS V14.01,2013-03-24 21:50:00,
2013-03-24 14:55:00,76.3,25.3,29.85,ESE,112,0.0,0.0,15,0.00,,---,0.00,VWS V14.01,2013-03-24 21:55:00,
2013-03-24 15:00:00,76.6,25.6,29.85,SW,225,0.0,0.0,15,0.00,,---,0.00,VWS V14.01,2013-03-24 22:00:00,
2013-03-24 15:05:00,76.5,25.4,29.85,SW,225,3.1,8.5,15,0.00,,---,0.00,VWS V14.01,2013-03-24 22:05:00,
2013-03-24 15:10:00,76.6,25.6,29.85,SW,225,2.2,2.2,15,0.00,,---,0.00,VWS V14.01,2013-03-24 22:10:00,
2013-03-24 15:15:00,76.8,25.7,29.85,SSW,202,0.0,0.0,15,0.00,,---,0.00,VWS V14.01,2013-03-24 22:15:00,
2013-03-24 15:20:00,76.8,25.7,29.85,SW,225,0.0,0.0,15,0.00,,---,0.00,VWS V14.01,2013-03-24 22:20:00,
2013-03-24 15:25:00,76.3,25.3,29.85,NNW,338,0.0,0.0,15,0.00,,---,0.00,VWS V14.01,2013-03-24 22:25:00,
2013-03-24 15:31:00,76.5,25.4,29.85,SW,225,6.3,6.3,15,0.00,,---,0.00,VWS V14.01,2013-03-24 22:31:00,
2013-03-24 15:36:00,76.3,25.3,29.85,SW,225,0.0,1.6,15,0.00,,---,0.00,VWS V14.01,2013-03-24 22:36:00,
2013-03-24 15:41:00,76.1,25.1,29.85,NNW,338,1.6,3.6,15,0.00,,---,0.00,VWS V14.01,2013-03-24 22:41:00,
2013-03-24 15:46:00,76.5,25.4,29.85,NW,315,1.1,1.1,15,0.00,,---,0.00,VWS V14.01,2013-03-24 22:46:00,
2013-03-24 15:51:00,76.8,25.7,29.85,WSW,248,3.4,3.4,15,0.00,,---,0.00,VWS V14.01,2013-03-24 22:51:00,
2013-03-24 15:57:00,76.8,25.7,29.85,SW,225,3.6,3.6,15,0.00,,---,0.00,VWS V14.01,2013-03-24 22:57:00,
2013-03-24 16:02:00,76.8,25.7,29.85,WSW,248,4.7,4.7,15,0.00,,---,0.00,VWS V14.01,2013-03-24 23:02:00,
2013-03-24 16:07:00,76.5,25.4,29.85,WSW,248,0.0,0.0,15,0.00,,---,0.00,VWS V14.01,2013-03-24 23:07:00,
2013-03-24 16:12:00,76.5,25.4,29.85,SW,225,0.0,0.0,15,0.00,,---,0.00,VWS V14.01,2013-03-24 23:12:00,
2013-03-24 16:17:00,76.8,25.7,29.85,SSW,202,3.6,3.6,15,0.00,,---,0.00,VWS V14.01,2013-03-24 23:17:00,
2013-03-24 16:22:00,76.1,25.1,29.85,North,0,3.1,3.1,15,0.00,,---,0.00,VWS V14.01,2013-03-24 23:22:00,
2013-03-24 16:27:00,75.7,24.9,29.85,North,0,0.0,0.0,15,0.00,,---,0.00,VWS V14.01,2013-03-24 23:27:00,
2013-03-24 16:32:00,74.8,25.7,29.85,SW,225,3.4,3.4,16,0.00,,---,0.00,VWS V14.01,2013-03-24 23:32:00,
2013-03-24 16:37:00,75.2,24.4,29.85,East,90,0.0,0.0,15,0.00,,---,0.00,VWS V14.01,2013-03-24 23:37:00,
2013-03-24 16:42:00,75.2,24.4,29.85,SW,225,0.0,0.0,15,0.00,,---,0.00,VWS V14.01,2013-03-24 23:42:00,
2013-03-24 16:47:00,74.8,25.7,29.85,SW,225,0.0,0.0,16,0.00,,---,0.00,VWS V14.01,2013-03-24 23:47:00,
2013-03-24 16:52:00,74.7,25.5,29.85,South,180,0.0,4.9,16,0.00,,---,0.00,VWS V14.01,2013-03-24 23:52:00,
2013-03-24 16:57:00,74.7,25.5,29.85,WSW,248,0.0,2.0,16,0.00,,---,0.00,VWS V14.01,2013-03-24 23:57:00,
2013-03-24 17:02:00,74.5,25.4,29.85,South,180,0.0,0.0,16,0.00,,---,0.00,VWS V14.01,2013-03-25 00:02:00,
2013-03-24 17:08:00,74.5,25.4,29.85,West,270,0.0,2.7,16,0.00,,---,0.00,VWS V14.01,2013-03-25 00:08:00,
2013-03-24 17:13:00,74.5,25.4,29.85,NNW,338,0.0,0.0,16,0.00,,---,0.00,VWS V14.01,2013-03-25 00:13:00,
2013-03-24 17:18:00,74.1,25.1,29.85,South,180,0.0,0.0,16,0.00,,---,0.00,VWS V14.01,2013-03-25 00:18:00,
2013-03-24 17:23:00,74.1,25.1,29.85,SW,225,0.0,0.0,16,0.00,,---,0.00,VWS V14.01,2013-03-25 00:23:00,
2013-03-24 17:28:00,74.1,25.1,29.85,South,180,0.0,0.0,16,0.00,,---,0.00,VWS V14.01,2013-03-25 00:28:00,
2013-03-24 17:33:00,73.4,24.5,29.85,NNW,338,0.0,0.0,16,0.00,,---,0.00,VWS V14.01,2013-03-25 00:33:00,
2013-03-24 17:38:00,72.5,23.8,29.85,WNW,292,0.0,0.0,16,0.00,,---,0.00,VWS V14.01,2013-03-25 00:38:00,
2013-03-24 17:43:00,72.1,23.5,29.85,SSW,202,4.5,4.5,16,0.00,,---,0.00,VWS V14.01,2013-03-25 00:43:00,
2013-03-24 17:48:00,71.6,23.1,29.85,North,0,0.0,0.0,16,0.00,,---,0.00,VWS V14.01,2013-03-25 00:48:00,
2013-03-24 17:53:00,70.9,23.9,29.85,NW,315,2.5,2.5,17,0.00,,---,0.00,VWS V14.01,2013-03-25 00:53:00,
2013-03-24 17:58:00,70.9,23.9,29.85,North,0,0.9,0.9,17,0.00,,---,0.00,VWS V14.01,2013-03-25 00:58:00,
2013-03-24 18:03:00,70.0,23.2,29.85,West,270,0.0,0.0,17,0.00,,---,0.00,VWS V14.01,2013-03-25 01:03:00,
2013-03-24 18:08:00,69.6,22.9,29.85,WNW,292,0.0,0.0,17,0.00,,---,0.00,VWS V14.01,2013-03-25 01:08:00,
2013-03-24 18:13:00,69.1,22.5,29.85,NNW,338,0.0,0.0,17,0.00,,---,0.00,VWS V14.01,2013-03-25 01:13:00,
2013-03-24 18:18:00,69.1,22.5,29.85,West,270,0.0,0.0,17,0.00,,---,0.00,VWS V14.01,2013-03-25 01:18:00,
2013-03-24 18:23:00,68.2,21.7,29.85,NW,315,0.0,0.0,17,0.00,,---,0.00,VWS V14.01,2013-03-25 01:23:00,
2013-03-24 18:28:00,67.8,21.5,29.85,WSW,248,0.0,0.0,17,0.00,,---,0.00,VWS V14.01,2013-03-25 01:28:00,
2013-03-24 18:34:00,67.5,21.2,29.85,NW,315,0.0,0.0,17,0.00,,---,0.00,VWS V14.01,2013-03-25 01:34:00,
2013-03-24 18:39:00,67.3,21.0,29.85,WSW,248,0.0,0.0,17,0.00,,---,0.00,VWS V14.01,2013-03-25 01:39:00,
2013-03-24 18:44:00,66.7,20.6,29.85,West,270,0.0,0.0,17,0.00,,---,0.00,VWS V14.01,2013-03-25 01:44:00,
2013-03-24 18:49:00,66.4,20.3,29.85,NW,315,0.0,0.0,17,0.00,,---,0.00,VWS V14.01,2013-03-25 01:49:00,
2013-03-24 18:54:00,65.8,21.2,29.85,WNW,292,0.0,0.0,18,0.00,,---,0.00,VWS V14.01,2013-03-25 01:54:00,
2013-03-24 18:59:00,65.3,20.7,29.85,NW,315,0.0,0.0,18,0.00,,---,0.00,VWS V14.01,2013-03-25 01:59:00,
2013-03-24 19:04:00,64.9,20.4,29.88,North,0,0.0,0.0,18,0.00,,---,0.00,VWS V14.01,2013-03-25 02:04:00,
2013-03-24 19:09:00,64.9,20.4,29.88,NNW,338,0.0,0.0,18,0.00,,---,0.00,VWS V14.01,2013-03-25 02:09:00,
2013-03-24 19:14:00,64.6,20.1,29.88,NNW,338,0.0,0.0,18,0.00,,---,0.00,VWS V14.01,2013-03-25 02:14:00,
2013-03-24 19:19:00,64.0,19.7,29.88,NNW,338,0.0,0.0,18,0.00,,---,0.00,VWS V14.01,2013-03-25 02:19:00,
2013-03-24 19:24:00,63.5,19.3,29.88,NNW,338,0.0,0.0,18,0.00,,---,0.00,VWS V14.01,2013-03-25 02:24:00,
2013-03-24 19:29:00,63.0,18.8,29.88,NNW,338,0.0,0.0,18,0.00,,---,0.00,VWS V14.01,2013-03-25 02:29:00,
2013-03-24 19:34:00,62.6,18.5,29.88,North,0,0.0,0.0,18,0.00,,---,0.00,VWS V14.01,2013-03-25 02:34:00,
2013-03-24 19:39:00,62.6,18.5,29.88,NNW,338,0.0,0.0,18,0.00,,---,0.00,VWS V14.01,2013-03-25 02:39:00,
2013-03-24 19:44:00,62.2,19.5,29.88,NNW,338,0.0,0.0,19,0.00,,---,0.00,VWS V14.01,2013-03-25 02:44:00,
2013-03-24 19:49:00,62.1,19.3,29.88,NNW,338,0.0,0.0,19,0.00,,---,0.00,VWS V14.01,2013-03-25 02:49:00,
2013-03-24 19:54:00,61.7,19.0,29.88,NNE,22,0.0,0.0,19,0.00,,---,0.00,VWS V14.01,2013-03-25 02:54:00,
2013-03-24 19:59:00,61.7,19.0,29.88,NE,45,0.0,0.0,19,0.00,,---,0.00,VWS V14.01,2013-03-25 02:59:00,
2013-03-24 20:04:00,61.5,18.9,29.88,NNE,22,0.0,0.0,19,0.00,,---,0.00,VWS V14.01,2013-03-25 03:04:00,
2013-03-24 20:09:00,61.7,19.0,29.88,NNE,22,0.0,0.0,19,0.00,,---,0.00,VWS V14.01,2013-03-25 03:09:00,
2013-03-24 20:14:00,61.5,18.9,29.88,NNW,338,0.0,0.0,19,0.00,,---,0.00,VWS V14.01,2013-03-25 03:14:00,
2013-03-24 20:19:00,61.2,18.6,29.88,North,0,0.0,0.0,19,0.00,,---,0.00,VWS V14.01,2013-03-25 03:19:00,
2013-03-24 20:24:00,60.6,18.2,29.88,NNW,338,0.0,0.0,19,0.00,,---,0.00,VWS V14.01,2013-03-25 03:24:00,
2013-03-24 20:29:00,60.4,18.0,29.88,North,0,0.0,0.0,19,0.00,,---,0.00,VWS V14.01,2013-03-25 03:29:00,
2013-03-24 20:34:00,60.4,18.0,29.88,North,0,0.0,0.0,19,0.00,,---,0.00,VWS V14.01,2013-03-25 03:34:00,
2013-03-24 20:39:00,60.4,18.0,29.88,North,0,0.0,0.0,19,0.00,,---,0.00,VWS V14.01,2013-03-25 03:39:00,
2013-03-24 20:44:00,60.6,18.2,29.88,North,0,0.0,0.0,19,0.00,,---,0.00,VWS V14.01,2013-03-25 03:44:00,
2013-03-24 20:49:00,60.4,18.0,29.88,North,0,0.0,0.0,19,0.00,,---,0.00,VWS V14.01,2013-03-25 03:49:00,
2013-03-24 20:54:00,60.3,17.9,29.88,NNE,22,0.0,0.0,19,0.00,,---,0.00,VWS V14.01,2013-03-25 03:54:00,
2013-03-24 21:00:00,60.1,17.7,29.88,NNW,338,0.0,0.0,19,0.00,,---,0.00,VWS V14.01,2013-03-25 04:00:00,
2013-03-24 21:02:00,59.9,17.6,29.88,NE,45,0.0,0.0,19,0.00,,---,0.00,VWS V14.01,2013-03-25 04:02:00,
2013-03-24 21:07:00,59.7,17.4,29.91,NNW,338,0.0,0.0,19,0.00,,---,0.00,VWS V14.01,2013-03-25 04:07:00,
2013-03-24 21:12:00,59.5,17.3,29.91,NNE,22,0.0,0.0,19,0.00,,---,0.00,VWS V14.01,2013-03-25 04:12:00,
2013-03-24 21:17:00,59.4,17.1,29.91,NNE,22,0.0,0.0,19,0.00,,---,0.00,VWS V14.01,2013-03-25 04:17:00,
2013-03-24 21:22:00,59.7,17.4,29.91,North,0,0.0,0.0,19,0.00,,---,0.00,VWS V14.01,2013-03-25 04:22:00,
2013-03-24 21:27:00,59.7,17.4,29.91,NE,45,0.0,0.0,19,0.00,,---,0.00,VWS V14.01,2013-03-25 04:27:00,
2013-03-24 21:32:00,59.9,17.6,29.91,NNE,22,0.0,0.0,19,0.00,,---,0.00,VWS V14.01,2013-03-25 04:32:00,
2013-03-24 21:37:00,59.9,17.6,29.91,NE,45,0.0,0.0,19,0.00,,---,0.00,VWS V14.01,2013-03-25 04:37:00,
2013-03-24 21:42:00,59.9,17.6,29.91,North,0,0.0,0.0,19,0.00,,---,0.00,VWS V14.01,2013-03-25 04:42:00,
2013-03-24 21:47:00,59.5,17.3,29.91,North,0,0.0,0.0,19,0.00,,---,0.00,VWS V14.01,2013-03-25 04:47:00,
2013-03-24 21:52:00,59.2,17.0,29.91,NNW,338,0.0,0.0,19,0.00,,---,0.00,VWS V14.01,2013-03-25 04:52:00,
2013-03-24 21:57:00,58.8,16.7,29.91,NE,45,0.0,0.0,19,0.00,,---,0.00,VWS V14.01,2013-03-25 04:57:00,
2013-03-24 22:02:00,58.5,16.4,29.91,North,0,0.0,0.0,19,0.00,,---,0.00,VWS V14.01,2013-03-25 05:02:00,
2013-03-24 22:08:00,58.3,16.2,29.91,NNW,338,0.0,0.0,19,0.00,,---,0.00,VWS V14.01,2013-03-25 05:08:00,
2013-03-24 22:13:00,58.1,16.1,29.91,NNW,338,0.0,0.0,19,0.00,,---,0.00,VWS V14.01,2013-03-25 05:13:00,
2013-03-24 22:18:00,58.1,16.1,29.91,NNW,338,0.0,0.0,19,0.00,,---,0.00,VWS V14.01,2013-03-25 05:18:00,
2013-03-24 22:23:00,58.3,16.2,29.91,North,0,0.0,0.0,19,0.00,,---,0.00,VWS V14.01,2013-03-25 05:23:00,
2013-03-24 22:28:00,58.3,16.2,29.91,NNW,338,0.0,0.0,19,0.00,,---,0.00,VWS V14.01,2013-03-25 05:28:00,
2013-03-24 22:33:00,58.1,16.1,29.91,NE,45,0.0,0.0,19,0.00,,---,0.00,VWS V14.01,2013-03-25 05:33:00,
2013-03-24 22:38:00,58.1,16.1,29.91,NNW,338,0.0,0.0,19,0.00,,---,0.00,VWS V14.01,2013-03-25 05:38:00,
2013-03-24 22:43:00,58.1,16.1,29.91,NW,315,0.0,0.0,19,0.00,,---,0.00,VWS V14.01,2013-03-25 05:43:00,
2013-03-24 22:48:00,58.1,16.1,29.91,North,0,0.0,0.0,19,0.00,,---,0.00,VWS V14.01,2013-03-25 05:48:00,
2013-03-24 22:53:00,58.1,16.1,29.91,NNW,338,0.0,0.0,19,0.00,,---,0.00,VWS V14.01,2013-03-25 05:53:00,
2013-03-24 22:58:00,58.1,16.1,29.91,North,0,0.0,0.0,19,0.00,,---,0.00,VWS V14.01,2013-03-25 05:58:00,
2013-03-24 23:03:00,58.3,16.2,29.91,NW,315,0.0,0.0,19,0.00,,---,0.00,VWS V14.01,2013-03-25 06:03:00,
2013-03-24 23:08:00,58.3,16.2,29.91,NE,45,0.0,0.0,19,0.00,,---,0.00,VWS V14.01,2013-03-25 06:08:00,
2013-03-24 23:13:00,58.5,16.4,29.91,NNW,338,0.0,0.0,19,0.00,,---,0.00,VWS V14.01,2013-03-25 06:13:00,
2013-03-24 23:18:00,58.3,16.2,29.91,NW,315,0.0,0.0,19,0.00,,---,0.00,VWS V14.01,2013-03-25 06:18:00,
2013-03-24 23:24:00,58.3,16.2,29.91,NNW,338,0.0,0.0,19,0.00,,---,0.00,VWS V14.01,2013-03-25 06:24:00,
2013-03-24 23:29:00,58.1,16.1,29.91,North,0,0.0,0.0,19,0.00,,---,0.00,VWS V14.01,2013-03-25 06:29:00,
2013-03-24 23:34:00,58.1,16.1,29.91,NNW,338,0.0,0.0,19,0.00,,---,0.00,VWS V14.01,2013-03-25 06:34:00,
2013-03-24 23:39:00,58.1,16.1,29.91,NW,315,0.0,0.0,19,0.00,,---,0.00,VWS V14.01,2013-03-25 06:39:00,
2013-03-24 23:44:00,57.9,15.9,29.91,NW,315,0.0,0.0,19,0.00,,---,0.00,VWS V14.01,2013-03-25 06:44:00,
2013-03-24 23:49:00,57.9,15.9,29.91,NNW,338,0.0,0.0,19,0.00,,---,0.00,VWS V14.01,2013-03-25 06:49:00,
2013-03-24 23:54:00,57.9,15.9,29.91,NNW,338,0.0,0.0,19,0.00,,---,0.00,VWS V14.01,2013-03-25 06:54:00,
2013-03-24 23:59:00,57.6,15.6,29.91,NNW,338,0.0,0.0,19,0.00,,---,0.00,VWS V14.01,2013-03-25 06:59:00,